カタログに戻る

QIANFAN-12

運用中通信PO
NORAD 60390·PAYLOAD·🇨🇳 China

打ち上げ Aug 6, 2024 から Taiyuan Satellite Launch Center

Loading…

次のパス (今後24時間)

TLE

最新Source: Space-Track

元期: Sep 14, 2026, 13:21 UTC

1 60390U 24140M   26257.55669457  .00000020  00000-0  11473-4 0  9990
2 60390  88.9648 270.6346 0014921 124.1657 236.0912 13.51023606104481

AllMySatでQIANFAN-12をリアルタイム追跡

Download on the App Store